Location: Wildlife_Club
(35.6000°N, 81.4330°W)
Time: 16:18:32
(UTC-04:00)

Iridium 56 - Visible Passes

Search period start: 01 September 2015 00:00
Search period end: 11 September 2015 00:00
Orbit: 776 x 779 km, 86.4° (Epoch: 01 September)

Date Brightness Start Highest point End Pass type
(mag) Time Alt. Az. Time Alt. Az. Time Alt. Az.
01 Sep 7.6 21:11:58 10° SW 21:16:30 29° W 21:20:59 10° NNW visible
02 Sep 6.3 20:37:42 10° SSW 20:42:49 56° W 20:47:56 10° N visible
04 Sep 8.3 21:12:55 10° SW 21:16:46 20° WNW 21:20:28 10° NNW visible
05 Sep 7.2 20:38:10 10° SSW 20:42:59 37° W 20:47:48 10° NNW visible
06 Sep 5.9 20:04:10 10° S 20:09:22 73° W 20:14:35 10° N visible
07 Sep 8.8 21:14:28 10° WSW 21:17:07 13° WNW 21:19:28 10° NW visible
08 Sep 9.0 06:05:55 10° NE 06:08:14 13° ENE 06:10:50 10° ESE visible
08 Sep 8.0 20:38:52 10° SW 20:43:13 26° W 20:47:28 10° NNW visible
09 Sep 6.7 20:04:28 10° SSW 20:09:30 49° W 20:14:32 10° N visible
